FW2417 Weather Reports


Display with metric or nautical units.
time (UTC)temp
F
wind
direction
speed
MPH
gust
MPH
rain 1hr
in
rain 24hr
in
rain mn
in
humidity
%
barometer
mb
20260506154547 78 203 0.0 3.0 0.00 0.00 0.00 29 1009.9
20260506153045 77 337 0.0 4.0 0.00 0.00 0.00 30 1010.1
20260506151546 76 20 0.0 2.0 0.00 0.00 0.00 32 1010.2
20260506150040 77 226 0.0 9.0 0.00 0.00 0.00 32 1010.5
20260506144533 77 256 1.0 5.0 0.00 0.00 0.00 31 1010.8
20260506143024 76 329 0.0 5.0 0.00 0.00 0.00 33 1010.9
20260506141507 76 236 0.0 3.0 0.00 0.00 0.00 33 1011.1
20260506140110 75 228 1.0 7.0 0.00 0.00 0.00 34 1011.2
20260506134620 76 205 1.0 6.0 0.00 0.00 0.00 32 1011.4
20260506133107 75 250 0.0 2.0 0.00 0.00 0.00 33 1011.6
20260506131613 74 75 0.0 2.0 0.00 0.00 0.00 34 1011.7
20260506130058 75 224 1.0 4.0 0.00 0.00 0.00 33 1011.8
20260506124611 74 103 0.0 2.0 0.00 0.00 0.00 34 1012.0
20260506123052 75 172 2.0 6.0 0.00 0.00 0.00 34 1012.2
20260506121545 74 233 0.0 4.0 0.00 0.00 0.00 34 1012.2
20260506120042 73 267 1.0 5.0 0.00 0.00 0.00 34 1012.4
20260506114546 73 170 1.0 4.0 0.00 0.00 0.00 33 1012.5
20260506113037 73 102 0.0 1.0 0.00 0.00 0.00 37 1012.5
20260506111503 72 120 0.0 1.0 0.00 0.00 0.00 39 1012.6
20260506110121 71 121 0.0 5.0 0.00 0.00 0.00 40 1012.7
20260506104501 70 117 0.0 3.0 0.00 0.00 0.00 43 1012.9
20260506103111 69 162 0.0 2.0 0.00 0.00 0.00 46 1013.0
20260506101603 67 100 0.0 1.0 0.00 0.00 0.00 48 1013.1
20260506100105 67 85 0.0 1.0 0.00 0.00 0.00 50 1013.1
20260506094558 66 7 0.0 1.0 0.00 0.00 0.00 51 1013.2
20260506093056 65 93 0.0 1.0 0.00 0.00 0.00 52 1013.2
20260506091544 65 39 0.0 3.0 0.00 0.00 0.00 52 1013.2
20260506090034 64 40 0.0 5.0 0.00 0.00 0.00 54 1013.1
20260506084505 63 127 0.0 5.0 0.00 0.00 0.00 57 1013.3
20260506083126 63 49 0.0 6.0 0.00 0.00 0.00 57 1013.3
20260506081613 62 68 2.0 4.0 0.00 0.00 0.00 58 1013.3
20260506080114 62 70 0.0 2.0 0.00 0.00 0.00 65 1013.4
20260506073110 61 75 0.0 1.0 0.00 0.00 0.00 73 1013.3
20260506071605 60 75 0.0 1.0 0.00 0.00 0.00 74 1013.3
20260506070124 61 75 0.0 0.0 0.00 0.00 0.00 73 1013.3
20260506061600 57 208 0.0 0.0 0.00 0.00 0.00 78 1013.1
20260506044542 55 208 0.0 1.0 0.00 0.00 0.00 82 1012.9
20260506043013 55 208 0.0 1.0 0.00 0.00 0.00 84 1012.8
20260506041538 55 208 0.0 1.0 0.00 0.00 0.00 83 1012.8
20260506040002 55 210 0.0 0.0 0.00 0.00 0.00 84 1013.0
20260506034619 55 210 0.0 0.0 0.00 0.00 0.00 83 1013.2
20260506033109 56 210 0.0 0.0 0.00 0.00 0.00 82 1013.2
20260506031606 56 209 0.0 0.0 0.00 0.00 0.00 80 1013.2
20260506024607 57 210 0.0 1.0 0.00 0.00 0.00 80 1013.1
20260506023051 57 210 0.0 1.0 0.00 0.00 0.00 80 1013.2
20260506021550 57 248 0.0 1.0 0.00 0.00 0.00 81 1013.2
20260506020105 57 246 0.0 1.0 0.00 0.00 0.00 81 1013.3
20260506014601 57 204 0.0 1.0 0.00 0.00 0.00 81 1013.3
20260506013012 58 195 0.0 1.0 0.00 0.00 0.00 80 1013.5
20260506011502 58 239 0.0 1.0 0.00 0.00 0.00 79 1013.5
20260506010108 58 219 0.0 1.0 0.00 0.00 0.00 80 1013.7
20260506004608 58 165 0.0 3.0 0.00 0.00 0.00 79 1013.8
20260506003100 58 195 0.0 2.0 0.00 0.00 0.00 79 1013.9
20260506001605 59 211 0.0 3.0 0.00 0.00 0.00 79 1014.0
20260506000119 59 203 1.0 4.0 0.00 0.00 0.00 79 1014.2
20260505234604 59 212 1.0 4.0 0.00 0.00 0.00 78 1014.2
20260505233055 59 207 0.0 5.0 0.00 0.00 0.00 78 1014.3
20260505231602 59 228 0.0 10.0 0.00 0.00 0.00 77 1014.3
20260505224544 60 220 1.0 8.0 0.00 0.00 0.00 76 1014.3
20260505223040 60 204 0.0 4.0 0.00 0.00 0.00 74 1014.3
20260505221537 61 205 0.0 7.0 0.00 0.00 0.00 73 1014.4
20260505220009 61 224 1.0 8.0 0.00 0.00 0.00 72 1014.4
20260505214506 61 245 2.0 10.0 0.00 0.00 0.00 70 1014.5
20260505213113 62 236 1.0 5.0 0.00 0.00 0.00 69 1014.5
20260505211608 62 219 3.0 10.0 0.00 0.00 0.00 69 1014.5
20260505210106 62 200 5.0 11.0 0.00 0.00 0.00 69 1014.5
20260505204604 63 266 2.0 11.0 0.00 0.00 0.00 68 1014.4
20260505203115 63 257 4.0 11.0 0.00 0.00 0.00 67 1014.3
20260505201604 64 248 5.0 14.0 0.00 0.00 0.00 67 1014.1
20260505200046 64 243 3.0 14.0 0.00 0.00 0.00 66 1013.9
20260505194550 65 254 6.0 16.0 0.00 0.00 0.00 65 1013.7
20260505193030 65 264 6.0 12.0 0.00 0.00 0.00 62 1013.6
20260505191507 66 239 4.0 13.0 0.00 0.00 0.00 60 1013.4
20260505190118 67 233 2.0 13.0 0.00 0.00 0.00 60 1013.4
20260505184618 67 255 4.0 14.0 0.00 0.00 0.00 58 1013.3
20260505183107 68 232 2.0 11.0 0.00 0.00 0.00 55 1013.2
20260505181606 70 235 3.0 12.0 0.00 0.00 0.00 53 1013.2
20260505180107 70 236 4.0 13.0 0.00 0.00 0.00 49 1013.2
20260505174604 71 228 3.0 13.0 0.00 0.00 0.00 45 1013.1
20260505173113 73 254 4.0 17.0 0.00 0.00 0.00 42 1013.1
20260505171625 75 232 3.0 15.0 0.00 0.00 0.00 40 1013.1
20260505170050 75 250 5.0 11.0 0.00 0.00 0.00 35 1013.2
20260505164555 76 239 0.0 6.0 0.00 0.00 0.00 29 1013.2
20260505163046 76 327 0.0 5.0 0.00 0.00 0.00 29 1013.3
20260505161553 75 219 1.0 5.0 0.00 0.00 0.00 30 1013.3